TimePST,TemperatureF,Dew PointF,Humidity,Sea Level PressureIn,VisibilityMPH,Wind Direction,Wind SpeedMPH,Gust SpeedMPH,PrecipitationIn,Events,Conditions,WindDirDegrees,DateUTC
12:33 AM,35.6,33.8,93,30.02,5.0,NE,8.1,-,N/A,,Overcast,50,2012-12-13 08:33:00
12:45 AM,35.6,33.8,93,30.02,1.5,ENE,8.1,-,N/A,,Overcast,60,2012-12-13 08:45:00
12:53 AM,35.1,34.0,96,30.03,1.0,NE,6.9,-,N/A,,Overcast,40,2012-12-13 08:53:00
1:15 AM,35.6,33.8,93,30.02,2.0,NE,6.9,-,N/A,,Overcast,50,2012-12-13 09:15:00
1:23 AM,35.6,33.8,93,30.02,5.0,NE,6.9,-,N/A,,Mostly Cloudy,50,2012-12-13 09:23:00
1:53 AM,34.0,34.0,100,30.04,3.0,ENE,3.5,-,N/A,,Mostly Cloudy,70,2012-12-13 09:53:00
2:53 AM,34.0,33.1,96,30.04,7.0,ENE,5.8,-,N/A,,Overcast,70,2012-12-13 10:53:00
3:09 AM,33.8,33.8,100,30.04,1.5,ENE,8.1,-,N/A,,Overcast,70,2012-12-13 11:09:00
3:17 AM,33.8,33.8,100,30.04,0.5,ENE,4.6,-,N/A,Fog,Fog,60,2012-12-13 11:17:00
3:25 AM,33.8,33.8,100,30.03,2.5,ENE,5.8,-,N/A,,Overcast,60,2012-12-13 11:25:00
3:32 AM,33.8,33.8,100,30.03,6.0,ENE,4.6,-,N/A,,Overcast,70,2012-12-13 11:32:00
3:51 AM,33.8,33.8,100,30.03,2.0,ENE,6.9,-,N/A,,Overcast,70,2012-12-13 11:51:00
3:53 AM,34.0,33.1,96,30.04,2.5,ENE,5.8,-,N/A,,Overcast,60,2012-12-13 11:53:00
4:00 AM,33.8,33.8,100,30.03,5.0,ENE,5.8,-,N/A,,Overcast,70,2012-12-13 12:00:00
4:53 AM,35.1,35.1,100,30.05,7.0,East,8.1,-,N/A,,Overcast,80,2012-12-13 12:53:00
5:53 AM,36.0,35.1,97,30.02,10.0,ENE,8.1,-,N/A,,Overcast,60,2012-12-13 13:53:00
6:53 AM,36.0,36.0,100,30.03,10.0,ENE,6.9,-,N/A,,Overcast,60,2012-12-13 14:53:00
7:53 AM,37.0,36.0,96,30.01,5.0,ENE,10.4,-,N/A,,Scattered Clouds,60,2012-12-13 15:53:00
8:01 AM,37.4,35.6,93,30.00,3.0,ENE,9.2,-,N/A,,Scattered Clouds,60,2012-12-13 16:01:00
8:53 AM,37.0,36.0,96,30.01,6.0,NE,11.5,-,N/A,,Clear,50,2012-12-13 16:53:00
9:53 AM,41.0,39.0,93,30.00,10.0,ENE,6.9,-,N/A,,Partly Cloudy,60,2012-12-13 17:53:00
10:53 AM,42.1,39.0,89,29.99,10.0,ENE,5.8,-,N/A,,Overcast,70,2012-12-13 18:53:00
11:53 AM,43.0,39.0,86,29.96,10.0,ENE,6.9,-,N/A,,Overcast,60,2012-12-13 19:53:00
12:53 PM,44.1,39.9,85,29.94,9.0,ENE,5.8,-,N/A,,Overcast,70,2012-12-13 20:53:00
1:42 PM,42.8,39.2,87,29.90,10.0,NE,3.5,-,0.01,,Overcast,40,2012-12-13 21:42:00
1:53 PM,43.0,41.0,93,29.91,10.0,ENE,4.6,-,0.01,,Overcast,60,2012-12-13 21:53:00
2:38 PM,42.8,41.0,93,29.87,10.0,East,8.1,-,N/A,,Overcast,80,2012-12-13 22:38:00
3:08 PM,44.6,41.0,87,29.87,10.0,ENE,8.1,-,N/A,Rain,Light Rain,70,2012-12-13 23:08:00
4:42 PM,44.6,41.0,87,29.84,10.0,SE,10.4,-,0.01,,Overcast,130,2012-12-14 00:42:00
4:53 PM,44.6,41.0,87,29.84,10.0,SE,11.5,-,N/A,,Overcast,130,2012-12-14 00:53:00
5:38 PM,44.6,41.0,87,29.83,7.0,SE,9.2,-,0.02,Rain,Light Rain,140,2012-12-14 01:38:00
5:53 PM,43.0,41.0,93,29.84,6.0,SE,10.4,-,0.03,Rain,Light Rain,130,2012-12-14 01:53:00
6:25 PM,42.8,41.0,93,29.82,6.0,ESE,6.9,-,0.04,Rain,Light Rain,120,2012-12-14 02:25:00
6:53 PM,43.0,41.0,93,29.83,7.0,ESE,8.1,-,0.08,Rain,Light Rain,120,2012-12-14 02:53:00
7:53 PM,42.1,41.0,96,29.82,8.0,East,6.9,-,0.06,Rain,Light Rain,80,2012-12-14 03:53:00
8:53 PM,42.1,41.0,96,29.82,6.0,East,8.1,-,0.05,Rain,Light Rain,90,2012-12-14 04:53:00
9:14 PM,42.8,41.0,93,29.80,10.0,East,8.1,-,0.01,Rain,Light Rain,90,2012-12-14 05:14:00
9:31 PM,42.8,41.0,93,29.80,7.0,East,6.9,-,0.03,Rain,Light Rain,90,2012-12-14 05:31:00
9:53 PM,42.8,41.0,93,29.80,7.0,East,6.9,-,N/A,Rain,Light Rain,90,2012-12-14 05:53:00
10:24 PM,42.8,41.0,93,29.79,10.0,East,10.4,-,0.02,Rain,Light Rain,80,2012-12-14 06:24:00
10:35 PM,42.8,41.0,93,29.79,10.0,ENE,9.2,-,0.02,Rain,Light Rain,70,2012-12-14 06:35:00
10:53 PM,42.1,41.0,96,29.80,9.0,East,9.2,-,0.03,Rain,Light Rain,80,2012-12-14 06:53:00
11:11 PM,42.8,41.0,93,29.79,7.0,East,10.4,-,0.02,Rain,Light Rain,80,2012-12-14 07:11:00
11:34 PM,42.8,41.0,93,29.78,8.0,East,9.2,-,0.03,Rain,Light Rain,100,2012-12-14 07:34:00
11:50 PM,42.8,41.0,93,29.78,8.0,ESE,12.7,-,0.04,Rain,Light Rain,120,2012-12-14 07:50:00
11:53 PM,43.0,41.0,93,29.79,8.0,ESE,11.5,-,0.04,Rain,Light Rain,120,2012-12-14 07:53:00